Location: Trois-Rivi�res
(46.3500°N, 72.5500°W)
Time: 08:17:33
(UTC-04:00)

Cosmos 1544 - Visible Passes

Search period start: 21 April 2014 00:00
Search period end: 01 May 2014 00:00
Orbit: 503 x 530 km, 82.5° (Epoch: 20 April)

Date Brightness Start Highest point End Pass type
(mag) Time Alt. Az. Time Alt. Az. Time Alt. Az.
21 Apr 3.1 04:59:28 10° N 05:03:15 84° W 05:07:00 10° S visible
22 Apr 3.3 04:44:39 10° N 04:48:26 80° E 04:52:11 10° SSE visible
23 Apr 3.6 04:29:50 10° N 04:33:35 65° E 04:37:20 10° SSE visible
24 Apr 3.9 04:15:01 10° N 04:18:43 53° ENE 04:22:24 10° SSE visible
25 Apr 4.3 04:00:12 10° N 04:03:49 44° ENE 04:07:26 10° SSE visible
26 Apr 4.7 03:45:22 10° N 03:48:53 36° ENE 03:52:24 10° SE visible
27 Apr 5.0 03:30:33 10° N 03:33:56 30° ENE 03:37:18 10° SE visible
27 Apr 4.6 05:06:41 10° NW 05:09:27 20° W 05:12:14 10° SW visible
28 Apr 5.3 03:15:44 10° NNE 03:18:57 26° ENE 03:22:08 10° SE visible
28 Apr 4.4 04:51:31 10° NW 04:54:34 23° W 04:57:36 10° SW visible
29 Apr 5.5 03:00:56 10° NNE 03:03:55 22° ENE 03:06:54 10° ESE visible
29 Apr 4.1 04:36:23 10° NNW 04:39:39 28° W 04:42:53 10° SSW visible
30 Apr 5.8 02:46:10 10° NNE 02:48:52 19° ENE 02:51:35 10° ESE visible
30 Apr 3.9 04:21:16 10° NNW 04:24:42 34° W 04:27:22 15° SSW visible
